www.pogodaiklimat.ru

Погода и климат >> Архив погоды >> Финляндия >> Хювинкяа


ПОГОДА в Хювинкяа

  • Прогноз погоды в Хювинкяа
  • Монитор погоды в Хювинкяа

АРХИВ ПОГОДЫ в Хювинкяа

Время (UTC), дата Ветер
(напр.,м/с)
 
Видим.   Явления Облачность Т
(С)
Тd
(С)
f
(%)
Тe
(С)
Тes
(С)
Комфортность P
(гПа)
Po
(гПа)
Тmin
(С)
Tmax
(С)
R
(мм)
R24
(мм)
S
(см)
10 13.09 21 км слаб. ливневой дождь 9/9 1000 м
[]
+11.3 +10.7 96 1008.5 997.9
11 13.09 35 км в посл. час дождь 9/3 100 м
[]
+12.4 +11.2 92 1008.0 997.4
12 13.09 45 км 9/9 300 м
[]
+13.2 +11.1 87 1008.3 997.8
13 13.09 45 км 9/5 300 м
[]
+13.2 +11.0 87 1008.3 997.8
14 13.09 7000 м дождь 9/9 600 м
[]
+10.5 +9.2 92 1008.6 998.0
15 13.09 45 км ясно +12.2 +9.9 86 1008.8 998.2
16 13.09 40 км ясно +11.6 +9.4 86 1009.3 998.6
17 13.09 50 км 1/0
[]
+10.6 +8.5 87 1010.0 999.3
18 13.09 45 км ясно +9.4 +7.2 86 1010.7 999.9 +9.4 +13.6 8
19 13.09 45 км ясно +8.7 +6.9 88 1010.9 1000.2
20 13.09 45 км 1/1 1000 м
[]
+8.0 +6.4 90 1011.0 1000.3
21 13.09 50 км ясно +7.8 +6.2 90 1011.3 1000.5
22 13.09 50 км ясно +7.5 +6.0 90 1011.7 1000.9
23 13.09 50 км ясно +8.0 +6.1 88 1011.9 1001.1
00 14.09 50 км ясно +7.4 +6.1 91 1012.4 1001.6
01 14.09 50 км ясно +6.8 +5.8 93 1012.9 1002.0
02 14.09 50 км ясно +6.7 +5.8 94 1013.1 1002.3
03 14.09 50 км ясно +6.6 +5.8 95 1013.5 1002.7
04 14.09 50 км 1/1 1000 м
[]
+6.4 +5.6 95 1013.6 1002.8
05 14.09 50 км ясно +6.6 +5.8 95 1014.0 1003.1
06 14.09 50 км ясно +8.8 +6.7 87 1014.1 1003.3 +6.4 +9.4
07 14.09 50 км ясно +10.4 +7.1 80 1014.3 1003.5
08 14.09 50 км 5/5 600 м
[]
+11.4 +6.7 73 1014.4 1003.7
09 14.09 45 км 6/6 600 м
[]
+12.4 +6.3 66 1014.7 1004.0
10 14.09 24 км слаб. ливневой дождь 8/8 600 м
[]
+11.5 +7.3 75 1014.7 1004.0
11 14.09 40 км слаб. ливневой дождь 8/8 600 м
[]
+12.3 +7.8 74 1014.6 1003.9
12 14.09 50 км в посл. час дождь 4/1 1500 м
[]
+12.3 +6.9 70 1014.8 1004.2 0.1
13 14.09 50 км в посл. час дождь 8/4 600 м
[]
+10.6 +7.1 79 1015.2 1004.4 0.1
14 14.09 35 км слаб. дождь 9/9 1000 м
[]
+12.5 +6.5 67 1014.8 1004.2
15 14.09 50 км в посл. час дождь 5/5 1000 м
[]
+11.5 +6.1 69 1014.8 1004.1
16 14.09 50 км слаб. ливневой дождь 8/8 1000 м
[]
+11.4 +6.2 70 1015.0 1004.3
17 14.09 50 км ясно +10.2 +5.0 70 1015.3 1004.5
18 14.09 50 км 4/4 1500 м
[]
+8.7 +5.1 78 1015.8 1005.0 +8.7 +13.8 0.5
19 14.09 50 км ясно +7.2 +5.2 87 1015.6 1004.7
20 14.09 35 км ясно +4.9 +4.2 95 1015.4 1004.5
21 14.09 40 км ясно +5.2 +4.3 94 1015.1 1004.2
22 14.09 28 км ясно +3.6 +3.2 97 1014.4 1003.4
23 14.09 30 км 1/0
[]
+3.0 +2.7 98 1013.3 1002.3
00 15.09 35 км 1/0
[]
+2.7 +2.5 99 1012.2 1001.2
01 15.09 35 км 9/0
[]
+3.1 +2.9 99 1011.3 1000.3
02 15.09 40 км 10/10
[]
+4.1 +3.8 98 1009.0 998.1
03 15.09 14 км слаб. дождь 9/9 1000 м
[]
+5.6 +5.4 99 1007.2 996.4 0.2
04 15.09 11 км слаб. дождь 10/0 1000 м
[]
+6.8 +6.6 99 1004.9 994.1 1
05 15.09 9000 м слаб. дождь 9/9 100 м
[]
+7.9 +7.7 99 1002.9 992.2 3
06 15.09 9000 м слаб. дождь 9/9 100 м
[]
+8.6 +8.4 99 1000.1 989.5 +2.6 +8.7 6
07 15.09 12 км слаб. дождь 10/10 100 м
[]
+9.1 +8.9 99 998.4 987.8
08 15.09 40 км слаб. дождь 10/0 100 м
[]
+10.0 +9.7 98 995.9 985.4 0.2
09 15.09 11 км слаб. ливневой дождь 10/10 100 м
[]
+10.9 +10.5 97 993.3 982.9 0.2
10 15.09 14 км морось 10/10 200 м
[]
+11.6 +10.9 95 991.9 981.5
11 15.09 16 км слаб. дождь 10/10 300 м
[]
+11.5 +10.9 96 990.4 980.0
12 15.09 20 км морось 10/10 300 м
[]
+11.9 +11.1 95 988.7 978.3 0.7
13 15.09 7000 м дождь 9/9 200 м
[]
+11.1 +9.4 89 989.1 978.7 4
14 15.09 45 км в посл. час дождь 8/8 1000 м
[]
+10.6 +9.7 94 988.2 977.7 0.9
15 15.09 30 км слаб. дождь 8/6 300 м
[]
+10.7 +9.1 90 988.3 977.9
16 15.09 50 км в посл. час дождь 1/1 1500 м
[]
+10.8 +9.0 89 988.5 978.0
17 15.09 45 км ясно +10.0 +8.7 92 989.1 978.6
18 15.09 50 км 1/1 1000 м
[]
+9.2 +8.1 93 989.7 979.1 +8.6 +12.1 8
19 15.09 45 км ясно +8.6 +7.6 93 989.8 979.2
20 15.09 50 км 1/1
[]
+8.2 +7.0 92 989.5 978.9
21 15.09 50 км ясно +7.7 +6.5 92 989.5 978.9
22 15.09 50 км ясно +7.2 +6.1 93 989.3 978.8
23 15.09 45 км ясно +6.8 +6.1 95 989.2 978.6
00 16.09 50 км ясно +6.7 +5.9 95 989.1 978.5
01 16.09 50 км ясно +6.7 +5.8 94 988.9 978.3
02 16.09 50 км 1/0 1000 м
[]
+6.5 +5.8 95 989.0 978.4
03 16.09 50 км ясно +6.2 +5.6 96 988.9 978.3
04 16.09 50 км 3/3 1500 м
[]
+6.2 +5.7 97 988.9 978.3
05 16.09 45 км 8/8 600 м
[]
+6.7 +6.0 95 989.0 978.4
06 16.09 50 км 1/1 200 м
[]
+8.4 +7.3 93 989.0 978.4 +6.1 +9.2
07 16.09 45 км 9/9 300 м
[]
+9.6 +7.4 86 989.4 978.9
08 16.09 50 км 9/9 300 м
[]
+9.9 +6.8 81 990.0 979.5
09 16.09 50 км 9/9 600 м
[]
+10.5 +6.3 75 990.8 980.3
10 16.09 40 км 9/8 600 м
[]
+10.7 +6.6 76 991.3 980.8
11 16.09 45 км 9/9 600 м
[]
+10.7 +6.1 73 992.2 981.8
12 16.09 50 км 9/9 300 м
[]
+10.7 +6.9 77 992.9 982.4
13 16.09 50 км в посл. час морось 9/9 300 м
[]
+10.0 +8.1 88 993.6 983.1
14 16.09 45 км 9/9 300 м
[]
+10.0 +7.6 85 994.0 983.5
15 16.09 30 км слаб. ливневой дождь 9/9 300 м
[]
+9.8 +7.4 85 994.7 984.1
16 16.09 17 км морось 10/10 1000 м
[]
+8.6 +7.5 93 995.2 984.6
17 16.09 50 км в посл. час морось 9/9 1500 м
[]
+8.2 +7.5 95 995.7 985.1
18 16.09 35 км 5/5
[]
+7.8 +7.3 97 996.0 985.4 +7.7 +11.6 0.6
19 16.09 40 км 9/5 200 м
[]
+8.3 +7.7 96 996.3 985.7
20 16.09 40 км 9/3 200 м
[]
+8.1 +7.2 94 996.7 986.1
21 16.09 35 км 4/1 1000 м
[]
+7.4 +6.7 95 997.0 986.3
22 16.09 30 км 5/5 600 м
[]
+6.8 +6.3 97 996.9 986.2
23 16.09 29 км 9/8 100 м
[]
+6.4 +5.8 96 996.9 986.2
00 17.09 30 км 3/1 200 м
[]
+5.7 +5.2 97 997.0 986.3
01 17.09 35 км 4/0
[]
+5.3 +4.8 97 997.0 986.2
02 17.09 26 км 3/1 100 м
[]
+4.6 +4.2 97 996.9 986.2
03 17.09 28 км 9/9 1000 м
[]
+4.7 +4.4 98 996.9 986.2
04 17.09 20 км 8/6 1000 м
[]
+4.3 +3.9 97 997.0 986.2
05 17.09 30 км 8/8
[]
+4.2 +3.8 97 997.1 986.3
06 17.09 40 км 1/1
[]
+5.3 +4.6 95 997.0 986.3 +4.1 +8.3
07 17.09 40 км 9/9 1000 м
[]
+6.7 +5.1 90 997.1 986.4
08 17.09 40 км 9/0 1000 м
[]
+7.8 +5.2 84 997.1 986.5
09 17.09 40 км 10/10 300 м
[]
+8.7 +5.4 80 997.4 986.8
10 17.09 40 км 10/10 300 м
[]
+9.4 +5.6 77 997.3 986.8
11 17.09 40 км 9/9 600 м
[]
+9.8 +5.0 72 997.4 986.9
12 17.09 45 км 10/10 1000 м
[]
+10.7 +4.1 64 997.5 987.0
13 17.09 40 км 9/0 1000 м
[]
+10.6 +3.4 61 997.6 987.0
14 17.09 45 км 9/9 1000 м
[]
+10.5 +4.4 66 997.5 986.9
15 17.09 45 км в посл. час дождь 10/10 600 м
[]
+9.8 +5.5 75 997.7 987.1
16 17.09 50 км 10/0 1000 м
[]
+9.4 +5.3 76 997.8 987.3
17 17.09 50 км 10/10 1000 м
[]
+8.8 +5.9 82 998.0 987.4
18 17.09 50 км 10/10 1000 м
[]
+8.4 +5.9 84 998.2 987.6 +5.3 +11.1
19 17.09 40 км морось 10/10 1000 м
[]
+7.9 +6.0 88 998.5 987.8
20 17.09 26 км слаб. дождь 10/10 1000 м
[]
+7.5 +6.7 95 998.7 988.1
21 17.09 18 км морось 9/1 1000 м
[]
+7.1 +6.6 97 999.0 988.3 0.1
22 17.09 17 км в посл. час морось 8/4 300 м
[]
+6.3 +6.0 98 999.1 988.3
23 17.09 17 км 9/4 1000 м
[]
+6.2 +6.0 99 999.4 988.7
00 18.09 30 км 10/10 1000 м
[]
+6.8 +6.6 99 999.9 989.2
01 18.09 40 км 9/0 1000 м
[]
+6.9 +6.6 98 1000.2 989.5
02 18.09 45 км 9/8 1000 м
[]
+6.8 +6.3 97 1000.6 989.9
03 18.09 35 км 9/9 1000 м
[]
+6.7 +6.3 97 1001.2 990.5
04 18.09 45 км в посл. час осадки 9/9 1000 м
[]
+6.6 +6.1 97 1001.7 990.9
05 18.09 50 км 9/0 1000 м
[]
+6.8 +6.2 96 1002.3 991.6
06 18.09 45 км 10/10 1000 м
[]
+7.4 +6.3 93 1003.1 992.4 +6.0 +8.4 0.4
07 18.09 45 км 9/9 200 м
[]
+8.1 +6.5 90 1003.5 992.8
08 18.09 50 км 9/9 300 м
[]
+8.5 +5.2 80 1004.2 993.5
09 18.09 50 км 4/4 600 м
[]
+9.7 +4.6 71 1004.8 994.2
10 18.09 50 км 8/8 600 м
[]
+11.1 +4.4 63 1005.1 994.5
11 18.09 40 км в посл. час дождь 3/0 1500 м
[]
+10.9 +3.2 59 1005.7 995.1
12 18.09 50 км слаб. ливневой дождь 8/6 1000 м
[]
+10.2 +5.3 72 1006.4 995.7 0.1
13 18.09 50 км слаб. ливневой дождь 5/4 1500 м
[]
+9.8 +5.0 72 1006.9 996.2
14 18.09 50 км в посл. час дождь 9/6 1000 м
[]
+8.5 +3.6 71 1007.6 996.9
15 18.09 50 км слаб. ливневой дождь 9/9 1000 м
[]
+8.5 +3.3 70 1008.4 997.6
16 18.09 50 км 5/5 2000 м
[]
+8.4 +2.5 66 1008.8 998.0
17 18.09 50 км 8/8 2000 м
[]
+6.0 +3.2 82 1009.4 998.5
18 18.09 45 км 4/0
[]
+3.3 +2.7 96 1010.4 999.4 +3.3 +11.4 0.2
19 18.09 35 км 5/0 2000 м
[]
+2.6 +2.3 98 1010.8 999.9
20 18.09 29 км ясно +2.0 +1.7 98 1011.3 1000.3
21 18.09 30 км ясно +0.8 +0.6 99 1011.7 1000.7
22 18.09 29 км ясно +0.2 0.0 99 1011.9 1000.8
23 18.09 21 км ясно -0.4 -0.6 99 1012.4 1001.2
00 19.09 24 км 3/3 <50 м
[]
-1.0 -1.2 99 1012.7 1001.6
01 19.09 9000 м дымка 9/9 <50 м
[]
-1.2 -1.4 99 1013.0 1001.8
02 19.09 26 км 1/1
[]
-1.5 -1.7 99 1013.0 1001.8
03 19.09 35 км 9/0
[]
-1.4 -1.6 99 1013.0 1001.9
04 19.09 35 км 9/9
[]
-1.0 -1.2 99 1013.3 1002.2
05 19.09 24 км 6/6 50 м
[]
-0.8 -1.0 99 1013.6 1002.5
06 19.09 26 км 6/6
[]
+0.7 +0.5 99 1013.7 1002.6 -1.6 +3.3
07 19.09 40 км 3/3
[]
+3.9 +3.3 96 1013.8 1002.9
08 19.09 45 км 1/0
[]
+6.9 +4.1 82 1013.8 1003.0
09 19.09 50 км 4/3
[]
+9.2 +2.8 64 1014.0 1003.2
10 19.09 35 км 4/4 1000 м
[]
+10.8 +2.4 56 1013.8 1003.1
11 19.09 45 км 9/1 1500 м
[]
+10.4 +2.0 56 1013.9 1003.2
12 19.09 50 км слаб. ливневой дождь 5/5 1000 м
[]
+8.9 +3.0 66 1013.9 1003.1
13 19.09 50 км 8/6 1000 м
[]
+10.4 +1.6 54 1013.8 1003.1
14 19.09 50 км слаб. ливневой дождь 9/9 1000 м
[]
+9.1 +3.8 69 1014.0 1003.3 0.6
15 19.09 50 км 4/4 1000 м
[]
+8.1 +3.4 72 1014.6 1003.8
16 19.09 50 км 3/3
[]
+7.7 +2.3 69 1014.9 1004.1
17 19.09 50 км в посл. час морось 5/5 600 м
[]
+5.1 +3.0 86 1015.7 1004.7
18 19.09 50 км 4/4 600 м
[]
+4.4 +2.4 87 1016.4 1005.4 +0.7 +11.4 0.6
19 19.09 50 км ясно +4.1 +2.3 88 1016.6 1005.6
20 19.09 50 км ясно +3.8 +2.3 90 1016.8 1005.8
21 19.09 50 км ясно +3.0 +1.9 92 1017.4 1006.4
22 19.09 50 км ясно +2.5 +1.7 94 1017.7 1006.7
23 19.09 40 км ясно +0.9 +0.6 98 1018.0 1006.8
00 20.09 40 км ясно -0.3 -0.4 99 1017.9 1006.8
01 20.09 35 км ясно -1.0 -1.1 99 1018.0 1006.8
02 20.09 40 км ясно -1.3 -1.4 99 1017.8 1006.6
03 20.09 50 км ясно -1.3 -1.4 99 1017.7 1006.5
04 20.09 50 км ясно -0.8 -0.9 99 1017.8 1006.6
05 20.09 50 км ясно -0.4 -0.6 99 1017.6 1006.4
06 20.09 50 км ясно +1.3 +0.6 95 1017.4 1006.3 -1.7 +4.4
07 20.09 50 км ясно +4.3 +2.2 86 1017.3 1006.3
08 20.09 50 км ясно +7.5 +2.9 73 1017.1 1006.3
09 20.09 45 км 1/0 600 м
[]
+9.3 +1.6 59 1016.8 1006.1
10 20.09 40 км 3/3 1000 м
[]
+9.7 +0.7 53 1016.5 1005.8
11 20.09 45 км 1/1 1000 м
[]
+10.5 +0.7 51 1016.0 1005.3

 

Местоположение метеостанции Хювинкяа (Финляндия): широта 60.60 долгота 24.80 высота над уровнем моря 86 м.

В архиве по умолчанию представлена погода в Хювинкяа за последнюю неделю. Архивные данные за месяц целиком и за предыдущие месяцы, начиная с января 2011 года, Вы можете получить, выбрав интересующий диапазон дат из раскрывающегося списка и нажав кнопку "Ввод!".


*Определитесь, кто Вы:
робот инопланетянин человек

Внимание! Время в таблицах - всемирное. Для получения местного времени необходимо прибавить поправку, которая равна 1 ч.

Смотрите также архив погоды в соседних городах и на ближайших метеорологических станциях:

Погода в Нурмиярви (Финляндия) (13 км)
Погода на Острове Синго (Финляндия) (22 км)
Погода в Вихти (Финляндия) (30 км)
Погода в Хельсинки (Финляндия) (31 км)
Погода в Эспо Нууксио (Финляндия) (37 км)
Погода в Хельсинки университете (Финляндия) (45 км)
Погода в Эспо Тапиола (Финляндия) (47 км)
Погода в Хельсинки Кайсаниеми (Финляндия) (47 км)
Погода в Хямеэнлинна (Финляндия) (48 км)
Погода в Порвоо (Финляндия) (50 км)

Пояснения к столбцам:

Ветер - указаны скорость ветра в м/с - средняя за 10 мин, порывы в срок и между сроками (в фигурных скобках) и направление, откуда дует ветер: С - северный, СВ - северо-восточный, В - восточный, ЮВ - юго-восточный, Ю - южный, ЮЗ - юго-западный, З - западный, СЗ - северо-западный.
Видимость - горизонтальная дальность видимости в метрах или километрах. При видимости от 1 до 10 км при отсутствии осадков обычно наблюдается дымка, при ухудшении видимости до 1 км и менее - туман. В сухую погоду видимость может ухудшаться дымом, пылью или мглою.
Явления - указаны атмосферные явления, наблюдавшиеся в срок или в последний час перед сроком; фигурными скобками обозначены явления, наблюдавшиеся между сроками (за 1-3 часа до срока); квадратными скобками обозначены град или гололедные отложения с указанием их диаметра в мм.
Облачность - указаны через наклонную черту общая и нижняя облачность в баллах и высота нижней границы облаков в метрах; квадратными скобками обозначены формы облаков: Ci - перистые, Cs - перисто-слоистые, Cc - перисто-кучевые, Ac - высококучевые, As - высокослоистые, Sc - слоисто-кучевые, Ns - слоисто-дождевые, Cu - кучевые, Cb - кучево-дождевые. Подробнее классификацию облаков см. в Атласе облаков (PDF).
T - Температура воздуха - температура, измеренная на высоте 2 м над землей.
Td - Температура точки росы - температура, при понижении до которой содержащийся в воздухе водяной пар достигнет насыщения.
f - Относительная влажность воздуха - влажноcть воздуха, измеренная на высоте 2 м над землей.
Te - Эффективная температура - температура, которую ощущает одетый по сезону человек в тени. Характеристика душности погоды. При расчете учитывается влияние влажности воздуха и скорости ветра на теплоощущения человека.
Tes - Эффективная температура на солнце - температура, которую ощущает человек, с поправкой на солнечный нагрев. Характеристика знойности погоды. Зависит от высоты солнца над горизонтом, облачности и скорости ветра. Ночью, в пасмурную погоду, а также при ветре 12 м/с и более поправка равна нулю.
P - Атмосферное давление - приведенное к уровню моря атмосферное давление.
Po - Атмосферное давление - измеренное на уровне метеостанции атмосферное давление.
Tmin - Минимальная температура - минимум температуры воздуха на высоте 2 м над землей.
Tmax - Максимальная температура - максимум температуры воздуха на высоте 2 м над землей.
R - Количество осадков - Количество выпавших осадков за период времени, мм. При наведении курсора мыши на число - период времени, за который выпало указанное количество осадков.
R24 - Количество осадков - Количество выпавших осадков за 24 часа, мм.
S - Снежный покров - Высота снежного покрова, см. При наведении курсора мыши на число - состояние снежного покрова и степень покрытия местности в баллах.